[Date Prev][Date Next][Thread Prev][Thread Next] - [Date Index][Thread Index][Author Index]
2 Line ISS Keps 5-15
- Subject: [sarex] 2 Line ISS Keps 5-15
- From: "Dave Larsen PhD" <doc@xxxxxxxxxxx>
- Date: Sat, 15 May 2004 03:35:16 -0700
ISS
1 25544U 98067A 04136.15504506 .00011312 00000-0 98954-4 0 7793
2 25544 51.6264 134.0643 0010902 135.4472 315.9779 15.69411140313139
----
Via the sarex mailing list at AMSAT.ORG courtesy of AMSAT-NA.
To unsubscribe, send "unsubscribe sarex" to Majordomo@amsat.org
AMSAT Home